Flag for Belgium Weather past 2 weeks in Antwerp, Belgium

Now
46 °F

Broken clouds.


Feels Like: 40 °F
Forecast: 35 / 42 °F
Wind: 16 mph from Northwest

Location: Antwerp / Deurne

Current Time: Dec 25, 2014 at 2:47:28 PM

Latest Report: Dec 25, 2014 at 1:50 PM


Visibility: N/A

Pressure: 30.30 "Hg

Humidity: 71%

Dew point: 37 °F

Location of AntwerpLocation

Historic Weather in Antwerp — Graph

°F

Antwerp temperature yesterday

Maximum temperature yesterday: 50 °F (at 12:20 AM)
Minimum temperature yesterday: 43 °F (at 9:20 PM)
Average temperature yesterday: 48 °F

Past Weeks' High & Low Weather Summary

 TemperatureHumidityPressure
High55 °F (Dec 18, 12:50 PM)94% (Dec 12, 1:20 PM)30.42 "Hg (Dec 12, 1:20 PM)
Low32 °F (Dec 14, 8:20 AM)57% (Dec 10, 3:50 PM)29.39 "Hg (Dec 12, 11:50 AM)
Average46 °F82%29.96 "Hg
* Reported Dec 10 1:20 PM — Dec 25 1:50 PM, Antwerp, Weather by CustomWeather, © 2014

Note: Actual official high and low records may vary slightly from our data, if they occured in-between our weather recording intervals... More about our weather records

Advertising

Antwerp weather history for previous 24 hours

 ConditionsComfort  
Time TempWeatherWind HumidityBarometerVisibility
1:50 PM
Dec 25
46 °FBroken clouds.16 mph71%30.30 "HgN/A
1:20 PM46 °FSunny.14 mph76%30.27 "Hg10 mi
12:50 PM46 °FBroken clouds.14 mph71%30.27 "HgN/A
12:20 PM45 °FPassing clouds.12 mph81%30.27 "HgN/A
11:50 AM45 °FPartly sunny.9 mph81%30.27 "HgN/A
11:20 AM45 °FPartly sunny.9 mph76%30.27 "HgN/A
10:50 AM43 °FBroken clouds.10 mph81%30.27 "HgN/A
10:20 AM43 °FPassing clouds.12 mph81%30.27 "HgN/A
9:50 AM41 °FPartly sunny.10 mph81%30.27 "HgN/A
9:20 AM41 °FBroken clouds.12 mph81%30.24 "HgN/A
8:50 AM41 °FScattered clouds.12 mph81%30.24 "HgN/A
8:20 AM41 °FPassing clouds.12 mph81%30.24 "HgN/A
7:50 AM41 °FPassing clouds.12 mph81%30.21 "HgN/A
7:20 AM39 °FPassing clouds.12 mph87%30.21 "HgN/A
6:50 AM39 °FClear.10 mph87%30.21 "Hg10 mi
6:20 AM39 °FClear.8 mph87%30.21 "Hg10 mi
5:50 AM39 °FClear.12 mph87%30.21 "Hg10 mi
5:20 AM39 °FClear.10 mph81%30.18 "Hg10 mi
4:20 AM41 °FPassing clouds.10 mph76%30.18 "HgN/A
3:50 AM41 °FClear.12 mph76%30.18 "Hg10 mi
3:20 AM41 °FPassing clouds.13 mph76%30.18 "HgN/A
2:50 AM41 °FClear.12 mph76%30.18 "Hg10 mi
2:20 AM41 °FClear.10 mph76%30.18 "Hg10 mi
1:50 AM43 °FClear.13 mph71%30.18 "Hg10 mi
1:20 AM43 °FClear.13 mph71%30.18 "Hg10 mi
12:50 AM43 °FPartly cloudy.12 mph71%30.18 "HgN/A
12:20 AM43 °FPassing clouds.12 mph71%30.15 "HgN/A
11:50 PM
Dec 24
43 °FPassing clouds.10 mph71%30.15 "HgN/A
11:20 PM43 °FPassing clouds.10 mph66%30.15 "HgN/A
10:50 PM43 °FPassing clouds.9 mph66%30.15 "HgN/A
10:20 PM43 °FPassing clouds.12 mph66%30.15 "HgN/A
9:50 PM43 °FPassing clouds.10 mph66%30.15 "HgN/A
9:20 PM43 °FPassing clouds.9 mph66%30.15 "HgN/A
8:50 PM45 °FPassing clouds.12 mph61%30.12 "HgN/A
8:20 PM45 °FOvercast.12 mph71%30.12 "HgN/A
7:50 PM45 °FDrizzle. Overcast.8 mph76%30.12 "HgN/A
7:20 PM46 °FOvercast.9 mph71%30.09 "HgN/A
6:50 PM46 °FOvercast.8 mph76%30.09 "HgN/A
6:20 PM46 °FOvercast.7 mph82%30.07 "HgN/A
5:50 PM46 °FPassing clouds.10 mph82%30.07 "HgN/A
5:20 PM46 °FLight rain. Passing clouds.13 mph82%30.04 "HgN/A
4:50 PM46 °FPassing clouds.12 mph82%30.04 "HgN/A
4:20 PM46 °FPartly sunny.10 mph87%30.04 "HgN/A
3:50 PM46 °FDrizzle. Broken clouds.12 mph93%30.01 "HgN/A
3:20 PM46 °FDrizzle. Fog.6 mph93%30.01 "Hg3 mi
2:50 PM46 °FLight rain. Fog.9 mph93%30.01 "Hg2 mi
2:20 PM50 °FLight rain. Fog.12 mph88%29.98 "Hg2 mi
Weather by CustomWeather, © 2014

See weather overviewHow to use our weather pages